Tracking 33484 objects as of 16-Mar-2026
HD Live streaming from Space Station
objects crossing your sky now

LEMUR-2-TEODOR

Track LEMUR-2-TEODOR now!
10-day predictions
LEMUR-2-TEODOR is classified as:


NORAD ID: 66768
Int'l Code: 2025-276DG
Perigee: 511.5 km
Apogee: 514.7 km
Inclination: 97.4 °
Period: 94.7 minutes
Semi major axis: 6884 km
RCS: Unknown
Launch date: November 28, 2025
Source: United States (US)
Launch site: AIR FORCE WESTERN TEST RANGE (AFWTR)
Your satellite tracking list
Your tracking list is empty




NASA's NSSDC Master Catalog

Two Line Element Set (TLE):
1 66768U 25276DG  26074.93008669  .00005735  00000-0  26971-3 0  9993
2 66768  97.4221 150.1841 0002312 107.1785 252.9703 15.19960889 16277
Source of the keplerian elements: AFSPC